SCP
0 0 0 0 0 0 0 0 0 0 0 0 0 0 0 0 0 0 0 0 0 0 0 0 0 0 0 0 0 0 0 0 0 0 0 0 0 0 0 0 0 0 0 0 0 0 0 0 0 0 0 0 0 0
0 0 0 0 0 0 0 0 0 0 0 0 0 0 0 0 0 0 0 0 0 0 0 0 0 0 0 0 0 0 0 0 0 0 0 0 0 0 0 0 0 0 0 0 0 0 0 0 0 0 0 0 0 0
0 0 0 0 0 0 0 0 0 0 0 0 0 0 0 0 0 0 0 0 0 0 0 0 0 0 0 0 0 0 0 0 0 0 0 0 0 -0 0 0 0 0 0 0 -0 0 0 0 0 0 0 0 0 0
0 0 0 0 0 0 0 0 0 0 0 0 0 0 0 0 0 0 0 0 0 0 0 0 0 0 0 0 0 0 0 0 0 0 0 0 0 0 0 0 0 0 -0 -0 -0 0 0 0 0 0 0 0 0 0
0 0 0 0 0 0 0 0 0 0 0 0 0 0 0 0 0 0 0 0 0 0 0 0 0 0 0 0 0 0 0 0 0 0 0 0 0 0 0 -0 0 0 0 0 0 0 0 0 0 0 0 0 0 0
0 0 0 0 0 0 0 0 0 0 0 0 0 0 0 0 0 0 0 0 0 0 0 0 0 0 0 0 0 0 0 0 0 0 0 0 0 0 0 0 0 -0 -0 -0 0 0 0 0 0 0 0 0 0 0
0 0 0 0 0 0 0 0 0 0 0 0 0 0 0 0 0 0 0 0 0 0 0 0 0 0 0 0 0 0 0 0 0 0 0 0 0 0 0 -0 0 -0 0 0 0 0 0 0 0 0 0 0 0 0
0 0 0 0 0 0 0 0 0 0 0 0 0 0 0 0 0 0 0 0 0 0 0 0 0 0 0 0 0 0 0 0 0 0 0 0 0 0 0 0 0 0 0 0 0 0 0 0 0 0 0 0 0 0
0 0 0 0 0 0 0 0 0 0 0 0 0 0 0 0 0 0 0 0 0 0 0 0 0 0 0 0 0 0 0 0 0 0 0 0 0 0 0 0 0 0 0 0 0 0 0 0 0 0 0 0 0 0
0 0 0 0 0 0 0 0 0 0 0 0 0 0 0 0 0 0 0 0 0 0 0 0 0 0 0 0 0 0 0 0 0 0 0 0 0 0 0 0 0 0 0 0 0 0 0 0 0 0 0 0 0 0
0 0 0 0 0 0 0 0 0 0 0 0 0 0 0 0 0 0 0 0 0 0 0 0 0 0 0 0 0 0 0 0 0 0 0 0 0 0 0 0 0 0 0 0 0 0 0 0 0 0 0 0 0 0
0 0 0 0 0 0 0 0 0 0 0 0 0 0 0 0 0 0 0 0 0 0 0 0 0 0 0 0 0 0 0 0 0 0 0 0 0 0 0 0 0 0 0 0 0 0 0 0 0 0 0 0 0 0
0 0 0 0 0 0 0 0 0 0 0 0 0 0 0 0 0 0 0 0 0 0 0 0 0 0 0 0 0 0 0 0 0 0 0 0 0 0 0 0 0 0 0 0 0 0 0 0 0 0 0 0 0 0
0 0 0 0 0 0 0 0 0 0 0 0 0 0 0 0 0 0 0 0 0 0 0 0 0 0 0 0 0 0 0 0 0 0 0 0 0 0 0 0 0 0 0 0 0 0 0 0 0 0 0 0 0 0
0 0 0 0 0 0 0 0 0 0 0 0 0 0 0 0 0 0 0 0 0 0 0 0 0 0 0 0 0 0 0 0 0 0 0 0 0 0 0 0 0 0 0 0 0 0 0 0 0 0 0 0 0 0
0 0 0 0 0 0 0 0 0 0 0 0 0 0 0 0 0 0 0 0 0 0 0 0 0 0 0 0 0 0 0 0 0 0 0 0 0 0 0 0 0 0 0 0 0 0 0 0 0 0 0 0 0 0
0 0 0 0 0 0 0 0 0 0 0 0 0 0 0 0 0 0 0 0 0 0 0 0 0 0 0 0 0 0 0 0 0 0 0 0 0 0 0 0 0 0 0 0 0 0 0 0 0 0 0 0 0 0
0 0 0 0 0 0 0 0 0 0 0 0 0 0 0 0 0 0 0 0 0 0 0 0 0 0 0 0 0 0 0 0 0 0 0 0 0 0 0 0 0 0 0 0 0 0 0 0 0 0 0 0 0 0
-0 0 0 0 0 0 0 0 0 0 0 0 0 0 0 0 0 0 0 0 0 0 0 0 0 0 0 0 0 0 0 0 0 0 0 0 0 0 0 0 0 0 0 0 0 0 0 0 0 0 0 0 0 0
-0 -0 -0 0 0 0 0 0 0 0 0 0 0 0 0 0 0 0 0 0 0 0 0 0 0 0 0 0 0 0 0 0 0 0 0 0 0 0 0 0 0 0 0 0 0 0 0 0 0 0 0 0 0 0
-0 -0 -0 0 0 0 0 0 0 0 0 0 0 0 0 0 0 0 0 0 0 0 0 0 0 0 0 0 0 0 0 0 0 0 0 0 0 0 0 0 0 0 0 0 0 0 0 0 0 0 0 0 0 0
0 -0 0 0 0 0 0 0 0 0 0 0 0 0 0 0 0 0 0 0 0 0 0 0 0 0 0 0 0 0 0 0 0 0 0 0 0 0 0 0 0 0 0 0 0 0 0 0 0 0 0 0 0 0
0 0 0 0 0 0 0 0 0 0 0 0 0 0 0 0 0 0 0 0 0 0 0 0 0 0 0 0 0 0 0 0 0 0 0 0 0 0 0 0 0 0 0 0 0 0 0 0 0 0 0 0 0 0
0 0 0 0 0 0 0 0 0 0 0 0 0 0 0 0 0 0 0 0 0 0 0 0 0 0 0 0 0 0 0 0 0 0 0 0 0 0 0 0 0 0 0 0 0 0 0 0 0 0 0 0 0 0
0 0 0 0 0 0 0 0 0 0 0 0 0 0 0 0 0 0 0 0 0 0 0 0 0 0 0 0 0 0 0 0 0 0 0 0 0 0 0 0 0 0 0 0 0 0 0 0 0 0 0 0 0 0
0 0 0 0 0 0 0 0 0 0 0 0 0 0 0 0 0 0 0 0 0 0 0 0 0 0 0 0 0 0 0 0 0 0 0 0 0 0 0 0 0 0 0 0 0 0 0 0 0 0 0 0 0 0
0 0 0 0 0 0 0 0 0 0 0 0 0 0 0 0 0 0 0 0 0 0 0 0 0 0 0 0 0 0 0 0 0 0 0 0 0 0 0 0 0 0 0 0 0 0 0 0 0 0 0 0 0 0
0 0 0 0 0 0 0 0 0 0 0 0 0 0 0 0 0 0 0 0 0 0 0 0 0 0 0 0 0 0 0 0 0 0 0 0 0 0 0 0 0 0 0 0 0 0 0 0 0 0 0 0 0 0
-0 0 0 0 0 0 0 0 0 0 0 0 0 0 0 0 0 0 0 0 0 0 0 0 0 0 0 0 0 0 0 0 0 0 0 0 0 0 0 0 0 0 0 0 0 0 0 0 0 0 0 0 0 0
0 0 -0 0 0 0 0 0 0 0 0 0 0 0 0 0 0 0 0 0 0 0 0 0 0 0 0 0 0 0 0 0 0 0 0 0 0 0 0 0 0 0 0 0 0 0 0 0 0 0 0 0 0 0
0 0 0 0 0 0 0 0 0 0 0 0 0 0 0 0 0 0 0 0 0 0 0 0 0 0 0 0 0 0 0 0 0 0 0 0 0 0 0 0 0 0 0 0 0 0 0 0 0 0 0 0 0 0
0 0 0 0 0 0 0 0 0 0 0 0 0 0 0 0 0 0 0 0 0 0 0 0 0 0 0 0 0 0 0 0 0 0 0 0 0 0 0 0 0 0 0 0 0 0 0 0 0 0 0 0 0 0
0 0 0 0 0 0 0 0 0 0 0 0 0 0 0 0 0 0 0 0 0 0 0 0 0 0 0 0 0 0 0 0 0 -0 -0 -0 -0 -0 0 0 0 0 0 0 0 0 0 0 0 0 0 0 0 0
Wind_Speed_500mb
84 79 77 75 73 71 67 63 60 64 62 62 60 59 57 59 57 51 55 54 50 23 36 34 39 44 29 26 16 10 3 10 8 14 10 8 7 8 8 11 11 16 11 15 13 18 25 23 9 14 10 6 12 14
89 81 77 74 73 69 68 67 63 59 62 63 61 60 59 56 57 55 57 55 51 47 24 20 50 72 67 62 38 28 20 9 29 5 4 4 13 5 4 7 3 8 9 4 8 4 10 30 8 35 13 9 14 17
93 79 72 72 73 69 66 64 63 62 61 60 60 56 55 54 53 59 63 54 43 37 25 52 57 76 69 70 71 41 36 48 35 50 8 7 11 6 10 16 29 13 18 18 23 27 30 43 39 38 29 29 21 20
54 57 62 67 72 66 63 67 58 59 56 55 50 51 52 52 52 56 66 63 51 17 10 23 33 42 48 62 71 85 96 45 47 44 23 7 10 10 5 8 4 5 9 12 11 13 13 35 48 48 41 37 31 24
54 58 59 59 65 59 61 61 56 52 47 46 47 48 48 52 49 54 65 68 60 47 7 11 27 35 37 45 42 54 76 68 38 14 10 10 7 5 6 1 16 11 8 6 6 17 10 15 14 20 36 45 40 32
52 40 49 60 61 55 55 59 51 51 46 43 46 48 49 53 49 49 41 70 67 55 16 5 20 34 25 27 36 54 70 73 49 21 13 17 13 13 9 6 25 38 59 65 27 35 32 29 28 24 27 25 30 37
44 39 46 59 50 51 52 52 52 51 46 43 42 41 40 48 53 59 9 11 71 59 12 4 7 21 38 49 41 45 57 42 47 25 16 12 17 23 4 6 21 35 53 51 32 17 17 31 22 19 25 22 29 34
42 42 43 35 45 46 45 48 49 48 46 42 38 38 37 44 49 56 47 16 36 48 16 6 8 4 22 16 14 27 27 40 28 23 18 9 12 10 8 17 38 36 34 25 29 34 38 39 35 37 27 22 30 31
14 24 38 42 44 46 47 49 46 45 43 42 38 36 33 40 41 31 51 44 33 25 9 12 8 8 13 10 11 15 20 7 15 8 8 20 7 13 18 34 50 53 33 34 37 42 48 48 40 35 28 29 32 27
21 27 33 39 43 45 48 46 45 43 44 40 34 24 21 26 39 22 20 20 28 22 20 6 20 5 13 4 4 3 6 5 6 6 22 6 6 38 43 41 30 28 34 34 30 35 38 39 38 36 31 30 28 28
26 29 33 38 39 41 42 42 42 42 38 43 28 17 24 36 34 23 14 14 16 12 18 18 40 7 20 5 3 9 5 3 5 7 9 6 6 3 9 25 23 22 24 23 27 28 24 28 28 30 33 30 29 28
38 36 35 33 35 37 38 39 45 51 35 35 20 35 29 17 12 9 7 4 1 7 7 9 18 40 19 20 7 8 6 2 10 9 6 4 5 9 9 10 15 17 19 23 22 23 22 21 27 32 27 27 27 26
33 30 29 31 34 35 35 42 49 56 33 27 11 9 8 5 4 7 9 5 3 2 15 16 9 24 16 23 6 6 7 8 10 4 6 8 5 10 12 9 12 11 13 16 13 14 14 16 20 26 25 24 24 22
21 23 26 26 29 33 39 45 47 40 23 6 7 6 8 2 6 6 7 7 4 3 15 7 6 7 12 6 5 8 5 8 7 5 12 4 13 14 12 9 6 5 9 13 10 10 13 14 15 18 19 21 22 19
17 18 22 23 28 34 47 50 47 55 14 8 7 8 4 1 13 12 7 6 13 12 6 5 5 8 4 5 6 5 2 6 8 9 5 19 25 20 14 7 5 8 8 8 10 12 13 14 14 16 17 18 18 16
33 26 27 36 30 33 40 44 45 23 14 9 17 7 9 7 6 12 18 9 23 22 5 7 6 6 10 7 6 7 2 13 3 5 21 21 18 16 10 3 3 5 7 11 12 14 16 18 18 19 21 21 20 19
22 35 26 25 21 31 45 36 9 16 14 11 8 23 21 20 10 7 14 17 22 13 1 4 8 7 6 6 5 7 1 4 13 20 18 17 12 9 3 7 13 17 21 22 22 24 26 29 30 32 32 33 30 29
47 27 25 25 18 19 21 13 15 15 15 17 10 10 29 19 6 11 17 22 12 5 8 4 5 11 5 4 2 4 8 10 11 13 12 8 8 8 7 15 26 26 30 32 33 37 38 36 36 39 37 35 32 32
33 26 19 18 16 10 11 13 14 11 13 13 20 20 19 17 32 25 14 10 20 16 12 10 12 5 3 2 2 10 14 14 13 11 13 12 11 12 18 24 34 32 36 39 37 39 40 38 40 37 35 27 28 28
27 22 20 15 10 11 12 13 12 15 6 8 11 11 12 12 13 23 34 27 21 13 13 10 3 1 5 8 10 13 10 8 4 6 14 14 15 19 24 31 33 32 38 39 39 38 37 38 35 32 27 25 21 22
16 15 14 12 19 23 16 11 14 11 15 13 14 6 9 13 15 19 22 24 21 14 5 10 13 9 8 6 5 4 5 3 2 4 8 16 19 23 27 26 29 32 37 38 38 36 33 35 32 28 21 20 20 18
11 11 11 18 15 14 18 18 14 11 10 13 9 9 12 7 11 17 13 26 12 10 9 11 15 13 6 4 5 7 7 6 12 15 21 23 27 29 30 31 29 33 35 35 32 31 30 28 24 21 16 16 15 14
14 9 16 17 13 16 8 11 10 11 8 3 6 8 7 7 8 12 12 11 8 14 11 8 8 7 6 9 9 10 12 13 19 22 22 24 27 29 29 28 28 29 31 31 27 24 22 19 17 14 13 13 13 15
20 17 22 19 27 6 8 15 12 10 9 8 7 6 6 7 6 11 5 5 11 11 8 7 7 11 14 15 20 20 21 23 27 29 27 25 28 28 25 25 22 22 23 24 18 17 13 10 11 12 14 17 21 23
14 26 19 15 24 13 14 10 11 9 7 6 7 7 5 6 5 6 2 3 9 11 14 14 15 16 22 23 24 23 21 23 27 30 30 26 23 22 20 18 15 14 14 13 11 10 12 14 16 19 22 25 28 29
18 23 13 9 12 9 5 7 8 6 6 6 4 11 6 5 8 2 4 7 6 5 8 12 16 16 18 19 19 19 19 17 16 14 16 15 13 9 7 5 6 8 10 11 11 13 16 19 21 22 24 28 34 39
13 8 13 19 9 6 9 11 9 8 8 7 6 8 4 7 2 3 1 3 2 2 6 10 11 12 13 13 14 13 11 9 9 8 7 6 5 5 6 8 10 11 12 14 16 19 22 25 29 32 34 31 31 37
14 16 9 19 15 18 6 6 7 7 5 11 5 7 4 4 4 4 3 4 6 9 9 10 9 9 8 7 6 5 5 4 3 3 4 7 8 8 7 10 11 13 16 21 25 28 32 34 36 37 36 36 34 33
13 13 5 10 9 12 12 5 3 6 8 4 3 2 1 1 9 12 12 11 12 11 10 9 7 7 6 4 3 2 2 3 6 6 9 11 10 11 14 18 22 26 27 26 29 34 35 38 40 44 44 45 44 45
16 18 7 8 7 8 11 12 11 10 9 7 7 8 8 9 11 10 8 7 8 8 7 5 3 1 1 4 4 4 5 6 7 8 12 14 16 20 23 26 27 30 34 35 34 32 34 38 39 40 44 46 48 52
13 14 11 13 7 6 11 8 12 15 14 15 17 12 8 6 9 9 4 4 7 5 3 2 2 3 4 5 6 8 10 10 13 16 19 21 24 26 28 29 31 33 34 35 36 37 39 40 43 46 49 52 54 59
16 14 5 5 2 9 12 7 6 4 5 4 6 5 3 2 2 0 3 3 3 5 4 4 4 5 6 8 10 11 13 14 16 19 22 24 24 27 30 30 32 34 36 37 39 41 44 49 54 57 62 66 69 72
7 10 9 5 6 6 16 13 11 5 5 4 6 8 5 2 2 2 5 4 3 3 4 6 8 9 10 12 13 15 16 16 20 23 26 28 28 29 29 29 31 34 38 41 44 48 52 56 62 66 70 75 79 83
Wind_Direction_500mb
251 250 246 244 243 237 233 233 236 239 239 240 239 238 233 229 227 223 233 234 224 239 250 244 244 234 238 222 229 231 92 228 195 244 238 242 258 238 202 179 166 202 207 210 212 233 235 171 115 188 217 154 162 193
251 244 243 241 238 234 232 232 232 235 239 234 233 232 233 229 228 224 232 235 232 233 246 253 252 246 248 244 248 224 231 199 216 162 223 184 243 283 330 273 140 232 200 252 223 243 331 210 240 204 175 189 195 200
248 235 237 238 235 230 229 228 230 233 234 232 231 230 230 228 227 224 229 231 220 239 260 265 257 251 247 250 248 245 249 245 242 252 227 241 240 125 246 242 252 235 198 219 274 257 260 276 255 246 238 222 219 230
264 227 239 239 230 221 224 228 224 230 230 225 227 228 230 234 232 225 224 224 223 218 252 268 269 256 258 258 250 244 239 243 241 237 230 216 232 184 266 285 249 275 143 192 235 281 294 263 250 254 240 236 246 245
261 235 233 234 222 216 221 225 218 217 217 219 224 227 227 236 235 228 226 224 224 201 214 250 269 261 262 272 265 255 234 228 222 209 225 235 218 213 238 302 243 205 229 244 264 256 226 260 282 261 248 244 247 238
254 236 233 228 209 215 217 215 208 210 214 219 226 228 229 229 226 224 226 226 216 218 228 245 268 260 249 267 274 250 244 233 226 224 225 219 207 198 195 238 267 257 249 248 242 235 238 259 274 281 286 276 239 227
240 240 234 211 208 210 206 203 208 209 215 220 227 226 228 223 214 213 193 200 204 206 208 301 285 245 250 244 243 248 245 232 216 215 210 183 193 190 239 206 254 285 272 250 240 260 266 268 258 273 269 266 226 221
227 226 231 202 202 207 206 207 209 210 216 220 221 221 227 217 215 221 208 155 169 177 186 205 261 310 208 204 210 203 225 221 212 202 172 167 147 198 224 236 242 251 267 263 245 248 262 272 273 261 256 237 214 211
249 211 203 207 207 208 210 201 201 209 215 217 215 216 220 217 217 202 217 214 203 188 205 186 161 228 194 250 238 206 188 248 193 189 174 153 161 209 207 219 238 238 228 244 251 255 257 256 258 252 238 220 213 217
239 219 208 207 208 207 199 195 201 207 210 208 206 200 204 212 212 210 196 202 208 214 228 197 166 205 172 159 278 284 234 188 245 213 134 176 234 239 237 232 241 231 235 242 252 251 246 239 234 226 219 215 207 207
235 210 204 198 191 192 193 199 205 199 193 190 197 170 162 167 164 179 199 204 166 175 201 218 201 160 205 150 227 250 240 187 227 240 169 182 261 157 244 216 221 228 231 229 234 239 235 233 221 216 202 191 189 186
204 188 183 188 193 191 194 198 186 182 187 181 156 134 150 157 168 179 179 303 250 172 165 173 197 195 194 196 161 204 253 185 217 147 158 212 252 1 319 267 239 244 246 236 228 229 227 220 202 206 194 183 181 185
145 173 185 187 188 188 194 188 186 188 176 128 118 134 172 214 77 176 168 266 330 239 183 179 183 164 162 191 200 168 231 232 114 144 216 221 88 353 334 290 264 255 253 251 220 222 219 210 198 189 183 179 182 181
158 168 180 188 193 194 189 186 171 172 160 108 130 126 158 250 220 167 181 168 65 331 336 309 153 174 177 174 186 225 195 132 194 186 223 64 18 353 347 313 283 257 241 229 196 190 196 193 186 183 182 183 189 187
193 197 192 199 192 180 180 183 168 171 143 143 142 193 119 125 69 57 15 122 14 349 333 227 214 190 210 224 207 100 184 228 207 232 30 356 346 347 331 344 359 223 225 186 165 170 173 174 169 172 174 179 179 177
131 135 161 145 141 156 182 170 172 134 105 81 48 79 27 78 19 37 16 9 354 345 286 233 239 199 214 190 139 196 161 209 78 322 331 336 339 344 340 356 130 143 139 120 134 147 149 146 146 143 140 139 138 139
130 95 112 133 133 169 173 165 109 62 69 58 49 55 87 72 72 34 3 342 343 350 62 302 243 178 323 77 115 0 307 334 314 336 344 341 348 347 11 93 105 106 107 111 118 124 127 125 125 125 125 112 115 115
107 117 113 124 130 150 120 61 76 69 63 52 80 51 68 67 46 21 2 8 11 25 11 77 352 47 55 148 249 320 354 354 2 0 356 17 52 62 80 102 98 100 107 110 113 112 112 117 119 109 107 104 107 102
125 145 151 132 111 91 75 50 44 87 76 87 90 76 76 81 52 40 32 63 60 80 98 49 63 57 53 32 276 344 358 16 14 24 38 53 69 85 88 102 102 105 110 109 112 108 106 105 101 101 99 103 101 95
81 104 120 130 129 88 81 52 58 80 69 91 83 68 73 72 43 34 40 50 60 47 46 43 79 295 280 295 301 299 316 331 359 61 68 75 89 107 109 101 107 113 109 108 105 102 101 99 95 92 90 88 87 84
97 86 83 94 66 66 82 71 62 72 110 86 110 65 78 51 38 26 22 25 60 35 61 47 16 356 323 315 330 349 9 347 279 258 134 103 104 105 106 118 118 115 111 107 103 99 97 90 86 82 77 77 70 63
109 104 80 55 68 69 72 51 87 95 81 105 75 57 46 32 15 14 26 47 61 31 11 2 15 15 32 71 88 103 94 109 128 134 130 126 122 119 116 112 116 108 102 96 92 89 86 83 78 71 64 57 48 36
122 86 59 44 79 54 34 43 72 40 80 50 72 48 23 36 29 4 69 59 69 4 357 21 32 34 71 92 101 116 123 137 131 126 125 122 115 110 110 110 106 104 100 93 88 86 83 77 74 62 45 29 13 358
102 58 34 37 33 39 21 32 40 46 61 45 56 35 10 18 26 57 69 55 18 23 58 82 110 105 103 113 108 109 118 126 125 121 117 120 117 110 107 102 100 96 91 85 76 68 58 43 33 15 354 341 334 329
84 15 23 9 21 30 31 18 5 32 51 360 70 17 341 1 63 53 84 3 14 52 77 85 104 119 115 105 105 108 117 125 126 126 121 115 108 104 102 97 89 78 68 58 37 5 341 342 339 336 332 327 324 323
69 22 43 4 9 50 358 54 28 5 2 51 7 317 5 71 61 339 276 343 358 43 96 112 112 116 117 118 119 123 124 124 119 128 118 112 107 98 82 64 49 31 12 356 345 330 327 331 330 328 327 324 323 321
52 348 36 32 30 46 50 43 37 54 52 27 322 339 30 66 51 280 301 353 344 78 119 120 128 133 130 128 127 126 123 125 127 125 110 88 53 20 359 352 349 346 337 336 329 323 322 322 324 323 322 321 322 318
56 39 50 4 53 38 91 45 34 22 358 343 304 30 93 165 181 184 181 117 120 133 134 132 141 146 155 146 148 165 177 180 209 252 291 308 307 312 307 319 319 319 319 320 320 320 320 319 318 318 318 322 326 326
37 360 32 22 48 53 46 50 358 324 312 343 353 76 98 193 159 147 135 119 119 127 131 132 130 127 138 154 185 217 231 243 266 293 315 309 309 313 313 319 320 317 317 317 314 313 313 316 319 321 322 323 324 323
17 20 80 44 59 50 10 23 9 46 77 97 106 95 81 107 140 144 148 143 138 132 131 132 125 112 267 268 282 286 281 283 292 297 298 301 307 309 308 309 310 308 307 309 312 312 310 310 309 308 308 309 311 310
18 27 53 43 72 24 2 31 60 64 67 72 82 91 104 112 93 77 101 190 194 189 194 225 248 278 294 301 303 307 310 300 295 293 295 301 306 308 307 307 306 308 311 313 312 312 311 309 310 309 309 309 310 310
27 40 46 56 1 10 13 25 29 51 47 54 36 29 33 18 267 130 19 40 164 198 230 275 276 293 303 309 305 302 299 293 296 301 303 304 306 307 308 310 309 308 308 308 309 309 309 309 310 310 310 310 310 311
36 29 39 23 11 11 1 2 30 24 46 40 26 17 16 323 249 330 336 329 310 294 291 298 296 299 302 303 299 303 302 299 303 309 310 311 310 308 306 307 306 306 306 306 308 308 308 306 306 307 308 309 310 310
Wind_Speed_850mb
84 79 77 75 73 71 67 63 60 64 62 62 60 59 57 59 57 51 55 54 50 23 36 34 39 44 29 26 16 10 3 10 8 14 10 8 7 8 8 11 11 16 11 15 13 18 25 23 9 14 10 6 12 14
89 81 77 74 73 69 68 67 63 59 62 63 61 60 59 56 57 55 57 55 51 47 24 20 50 72 67 62 38 28 20 9 29 5 4 4 13 5 4 7 3 8 9 4 8 4 10 30 8 35 13 9 14 17
93 79 72 72 73 69 66 64 63 62 61 60 60 56 55 54 53 59 63 54 43 37 25 52 57 76 69 70 71 41 36 48 35 50 8 7 11 6 10 16 29 13 18 18 23 27 30 43 39 38 29 29 21 20
54 57 62 67 72 66 63 67 58 59 56 55 50 51 52 52 52 56 66 63 51 17 10 23 33 42 48 62 71 85 96 45 47 44 23 7 10 10 5 8 4 5 9 12 11 13 13 35 48 48 41 37 31 24
54 58 59 59 65 59 61 61 56 52 47 46 47 48 48 52 49 54 65 68 60 47 7 11 27 35 37 45 42 54 76 68 38 14 10 10 7 5 6 1 16 11 8 6 6 17 10 15 14 20 36 45 40 32
52 40 49 60 61 55 55 59 51 51 46 43 46 48 49 53 49 49 41 70 67 55 16 5 20 34 25 27 36 54 70 73 49 21 13 17 13 13 9 6 25 38 59 65 27 35 32 29 28 24 27 25 30 37
44 39 46 59 50 51 52 52 52 51 46 43 42 41 40 48 53 59 9 11 71 59 12 4 7 21 38 49 41 45 57 42 47 25 16 12 17 23 4 6 21 35 53 51 32 17 17 31 22 19 25 22 29 34
42 42 43 35 45 46 45 48 49 48 46 42 38 38 37 44 49 56 47 16 36 48 16 6 8 4 22 16 14 27 27 40 28 23 18 9 12 10 8 17 38 36 34 25 29 34 38 39 35 37 27 22 30 31
14 24 38 42 44 46 47 49 46 45 43 42 38 36 33 40 41 31 51 44 33 25 9 12 8 8 13 10 11 15 20 7 15 8 8 20 7 13 18 34 50 53 33 34 37 42 48 48 40 35 28 29 32 27
21 27 33 39 43 45 48 46 45 43 44 40 34 24 21 26 39 22 20 20 28 22 20 6 20 5 13 4 4 3 6 5 6 6 22 6 6 38 43 41 30 28 34 34 30 35 38 39 38 36 31 30 28 28
26 29 33 38 39 41 42 42 42 42 38 43 28 17 24 36 34 23 14 14 16 12 18 18 40 7 20 5 3 9 5 3 5 7 9 6 6 3 9 25 23 22 24 23 27 28 24 28 28 30 33 30 29 28
38 36 35 33 35 37 38 39 45 51 35 35 20 35 29 17 12 9 7 4 1 7 7 9 18 40 19 20 7 8 6 2 10 9 6 4 5 9 9 10 15 17 19 23 22 23 22 21 27 32 27 27 27 26
33 30 29 31 34 35 35 42 49 56 33 27 11 9 8 5 4 7 9 5 3 2 15 16 9 24 16 23 6 6 7 8 10 4 6 8 5 10 12 9 12 11 13 16 13 14 14 16 20 26 25 24 24 22
21 23 26 26 29 33 39 45 47 40 23 6 7 6 8 2 6 6 7 7 4 3 15 7 6 7 12 6 5 8 5 8 7 5 12 4 13 14 12 9 6 5 9 13 10 10 13 14 15 18 19 21 22 19
17 18 22 23 28 34 47 50 47 55 14 8 7 8 4 1 13 12 7 6 13 12 6 5 5 8 4 5 6 5 2 6 8 9 5 19 25 20 14 7 5 8 8 8 10 12 13 14 14 16 17 18 18 16
33 26 27 36 30 33 40 44 45 23 14 9 17 7 9 7 6 12 18 9 23 22 5 7 6 6 10 7 6 7 2 13 3 5 21 21 18 16 10 3 3 5 7 11 12 14 16 18 18 19 21 21 20 19
22 35 26 25 21 31 45 36 9 16 14 11 8 23 21 20 10 7 14 17 22 13 1 4 8 7 6 6 5 7 1 4 13 20 18 17 12 9 3 7 13 17 21 22 22 24 26 29 30 32 32 33 30 29
47 27 25 25 18 19 21 13 15 15 15 17 10 10 29 19 6 11 17 22 12 5 8 4 5 11 5 4 2 4 8 10 11 13 12 8 8 8 7 15 26 26 30 32 33 37 38 36 36 39 37 35 32 32
33 26 19 18 16 10 11 13 14 11 13 13 20 20 19 17 32 25 14 10 20 16 12 10 12 5 3 2 2 10 14 14 13 11 13 12 11 12 18 24 34 32 36 39 37 39 40 38 40 37 35 27 28 28
27 22 20 15 10 11 12 13 12 15 6 8 11 11 12 12 13 23 34 27 21 13 13 10 3 1 5 8 10 13 10 8 4 6 14 14 15 19 24 31 33 32 38 39 39 38 37 38 35 32 27 25 21 22
16 15 14 12 19 23 16 11 14 11 15 13 14 6 9 13 15 19 22 24 21 14 5 10 13 9 8 6 5 4 5 3 2 4 8 16 19 23 27 26 29 32 37 38 38 36 33 35 32 28 21 20 20 18
11 11 11 18 15 14 18 18 14 11 10 13 9 9 12 7 11 17 13 26 12 10 9 11 15 13 6 4 5 7 7 6 12 15 21 23 27 29 30 31 29 33 35 35 32 31 30 28 24 21 16 16 15 14
14 9 16 17 13 16 8 11 10 11 8 3 6 8 7 7 8 12 12 11 8 14 11 8 8 7 6 9 9 10 12 13 19 22 22 24 27 29 29 28 28 29 31 31 27 24 22 19 17 14 13 13 13 15
20 17 22 19 27 6 8 15 12 10 9 8 7 6 6 7 6 11 5 5 11 11 8 7 7 11 14 15 20 20 21 23 27 29 27 25 28 28 25 25 22 22 23 24 18 17 13 10 11 12 14 17 21 23
14 26 19 15 24 13 14 10 11 9 7 6 7 7 5 6 5 6 2 3 9 11 14 14 15 16 22 23 24 23 21 23 27 30 30 26 23 22 20 18 15 14 14 13 11 10 12 14 16 19 22 25 28 29
18 23 13 9 12 9 5 7 8 6 6 6 4 11 6 5 8 2 4 7 6 5 8 12 16 16 18 19 19 19 19 17 16 14 16 15 13 9 7 5 6 8 10 11 11 13 16 19 21 22 24 28 34 39
13 8 13 19 9 6 9 11 9 8 8 7 6 8 4 7 2 3 1 3 2 2 6 10 11 12 13 13 14 13 11 9 9 8 7 6 5 5 6 8 10 11 12 14 16 19 22 25 29 32 34 31 31 37
14 16 9 19 15 18 6 6 7 7 5 11 5 7 4 4 4 4 3 4 6 9 9 10 9 9 8 7 6 5 5 4 3 3 4 7 8 8 7 10 11 13 16 21 25 28 32 34 36 37 36 36 34 33
13 13 5 10 9 12 12 5 3 6 8 4 3 2 1 1 9 12 12 11 12 11 10 9 7 7 6 4 3 2 2 3 6 6 9 11 10 11 14 18 22 26 27 26 29 34 35 38 40 44 44 45 44 45
16 18 7 8 7 8 11 12 11 10 9 7 7 8 8 9 11 10 8 7 8 8 7 5 3 1 1 4 4 4 5 6 7 8 12 14 16 20 23 26 27 30 34 35 34 32 34 38 39 40 44 46 48 52
13 14 11 13 7 6 11 8 12 15 14 15 17 12 8 6 9 9 4 4 7 5 3 2 2 3 4 5 6 8 10 10 13 16 19 21 24 26 28 29 31 33 34 35 36 37 39 40 43 46 49 52 54 59
16 14 5 5 2 9 12 7 6 4 5 4 6 5 3 2 2 0 3 3 3 5 4 4 4 5 6 8 10 11 13 14 16 19 22 24 24 27 30 30 32 34 36 37 39 41 44 49 54 57 62 66 69 72
7 10 9 5 6 6 16 13 11 5 5 4 6 8 5 2 2 2 5 4 3 3 4 6 8 9 10 12 13 15 16 16 20 23 26 28 28 29 29 29 31 34 38 41 44 48 52 56 62 66 70 75 79 83
Wind_Direction_850mb
251 250 246 244 243 237 233 233 236 239 239 240 239 238 233 229 227 223 233 234 224 239 250 244 244 234 238 222 229 231 92 228 195 244 238 242 258 238 202 179 166 202 207 210 212 233 235 171 115 188 217 154 162 193
251 244 243 241 238 234 232 232 232 235 239 234 233 232 233 229 228 224 232 235 232 233 246 253 252 246 248 244 248 224 231 199 216 162 223 184 243 283 330 273 140 232 200 252 223 243 331 210 240 204 175 189 195 200
248 235 237 238 235 230 229 228 230 233 234 232 231 230 230 228 227 224 229 231 220 239 260 265 257 251 247 250 248 245 249 245 242 252 227 241 240 125 246 242 252 235 198 219 274 257 260 276 255 246 238 222 219 230
264 227 239 239 230 221 224 228 224 230 230 225 227 228 230 234 232 225 224 224 223 218 252 268 269 256 258 258 250 244 239 243 241 237 230 216 232 184 266 285 249 275 143 192 235 281 294 263 250 254 240 236 246 245
261 235 233 234 222 216 221 225 218 217 217 219 224 227 227 236 235 228 226 224 224 201 214 250 269 261 262 272 265 255 234 228 222 209 225 235 218 213 238 302 243 205 229 244 264 256 226 260 282 261 248 244 247 238
254 236 233 228 209 215 217 215 208 210 214 219 226 228 229 229 226 224 226 226 216 218 228 245 268 260 249 267 274 250 244 233 226 224 225 219 207 198 195 238 267 257 249 248 242 235 238 259 274 281 286 276 239 227
240 240 234 211 208 210 206 203 208 209 215 220 227 226 228 223 214 213 193 200 204 206 208 301 285 245 250 244 243 248 245 232 216 215 210 183 193 190 239 206 254 285 272 250 240 260 266 268 258 273 269 266 226 221
227 226 231 202 202 207 206 207 209 210 216 220 221 221 227 217 215 221 208 155 169 177 186 205 261 310 208 204 210 203 225 221 212 202 172 167 147 198 224 236 242 251 267 263 245 248 262 272 273 261 256 237 214 211
249 211 203 207 207 208 210 201 201 209 215 217 215 216 220 217 217 202 217 214 203 188 205 186 161 228 194 250 238 206 188 248 193 189 174 153 161 209 207 219 238 238 228 244 251 255 257 256 258 252 238 220 213 217
239 219 208 207 208 207 199 195 201 207 210 208 206 200 204 212 212 210 196 202 208 214 228 197 166 205 172 159 278 284 234 188 245 213 134 176 234 239 237 232 241 231 235 242 252 251 246 239 234 226 219 215 207 207
235 210 204 198 191 192 193 199 205 199 193 190 197 170 162 167 164 179 199 204 166 175 201 218 201 160 205 150 227 250 240 187 227 240 169 182 261 157 244 216 221 228 231 229 234 239 235 233 221 216 202 191 189 186
204 188 183 188 193 191 194 198 186 182 187 181 156 134 150 157 168 179 179 303 250 172 165 173 197 195 194 196 161 204 253 185 217 147 158 212 252 1 319 267 239 244 246 236 228 229 227 220 202 206 194 183 181 185
145 173 185 187 188 188 194 188 186 188 176 128 118 134 172 214 77 176 168 266 330 239 183 179 183 164 162 191 200 168 231 232 114 144 216 221 88 353 334 290 264 255 253 251 220 222 219 210 198 189 183 179 182 181
158 168 180 188 193 194 189 186 171 172 160 108 130 126 158 250 220 167 181 168 65 331 336 309 153 174 177 174 186 225 195 132 194 186 223 64 18 353 347 313 283 257 241 229 196 190 196 193 186 183 182 183 189 187
193 197 192 199 192 180 180 183 168 171 143 143 142 193 119 125 69 57 15 122 14 349 333 227 214 190 210 224 207 100 184 228 207 232 30 356 346 347 331 344 359 223 225 186 165 170 173 174 169 172 174 179 179 177
131 135 161 145 141 156 182 170 172 134 105 81 48 79 27 78 19 37 16 9 354 345 286 233 239 199 214 190 139 196 161 209 78 322 331 336 339 344 340 356 130 143 139 120 134 147 149 146 146 143 140 139 138 139
130 95 112 133 133 169 173 165 109 62 69 58 49 55 87 72 72 34 3 342 343 350 62 302 243 178 323 77 115 0 307 334 314 336 344 341 348 347 11 93 105 106 107 111 118 124 127 125 125 125 125 112 115 115
107 117 113 124 130 150 120 61 76 69 63 52 80 51 68 67 46 21 2 8 11 25 11 77 352 47 55 148 249 320 354 354 2 0 356 17 52 62 80 102 98 100 107 110 113 112 112 117 119 109 107 104 107 102
125 145 151 132 111 91 75 50 44 87 76 87 90 76 76 81 52 40 32 63 60 80 98 49 63 57 53 32 276 344 358 16 14 24 38 53 69 85 88 102 102 105 110 109 112 108 106 105 101 101 99 103 101 95
81 104 120 130 129 88 81 52 58 80 69 91 83 68 73 72 43 34 40 50 60 47 46 43 79 295 280 295 301 299 316 331 359 61 68 75 89 107 109 101 107 113 109 108 105 102 101 99 95 92 90 88 87 84
97 86 83 94 66 66 82 71 62 72 110 86 110 65 78 51 38 26 22 25 60 35 61 47 16 356 323 315 330 349 9 347 279 258 134 103 104 105 106 118 118 115 111 107 103 99 97 90 86 82 77 77 70 63
109 104 80 55 68 69 72 51 87 95 81 105 75 57 46 32 15 14 26 47 61 31 11 2 15 15 32 71 88 103 94 109 128 134 130 126 122 119 116 112 116 108 102 96 92 89 86 83 78 71 64 57 48 36
122 86 59 44 79 54 34 43 72 40 80 50 72 48 23 36 29 4 69 59 69 4 357 21 32 34 71 92 101 116 123 137 131 126 125 122 115 110 110 110 106 104 100 93 88 86 83 77 74 62 45 29 13 358
102 58 34 37 33 39 21 32 40 46 61 45 56 35 10 18 26 57 69 55 18 23 58 82 110 105 103 113 108 109 118 126 125 121 117 120 117 110 107 102 100 96 91 85 76 68 58 43 33 15 354 341 334 329
84 15 23 9 21 30 31 18 5 32 51 360 70 17 341 1 63 53 84 3 14 52 77 85 104 119 115 105 105 108 117 125 126 126 121 115 108 104 102 97 89 78 68 58 37 5 341 342 339 336 332 327 324 323
69 22 43 4 9 50 358 54 28 5 2 51 7 317 5 71 61 339 276 343 358 43 96 112 112 116 117 118 119 123 124 124 119 128 118 112 107 98 82 64 49 31 12 356 345 330 327 331 330 328 327 324 323 321
52 348 36 32 30 46 50 43 37 54 52 27 322 339 30 66 51 280 301 353 344 78 119 120 128 133 130 128 127 126 123 125 127 125 110 88 53 20 359 352 349 346 337 336 329 323 322 322 324 323 322 321 322 318
56 39 50 4 53 38 91 45 34 22 358 343 304 30 93 165 181 184 181 117 120 133 134 132 141 146 155 146 148 165 177 180 209 252 291 308 307 312 307 319 319 319 319 320 320 320 320 319 318 318 318 322 326 326
37 360 32 22 48 53 46 50 358 324 312 343 353 76 98 193 159 147 135 119 119 127 131 132 130 127 138 154 185 217 231 243 266 293 315 309 309 313 313 319 320 317 317 317 314 313 313 316 319 321 322 323 324 323
17 20 80 44 59 50 10 23 9 46 77 97 106 95 81 107 140 144 148 143 138 132 131 132 125 112 267 268 282 286 281 283 292 297 298 301 307 309 308 309 310 308 307 309 312 312 310 310 309 308 308 309 311 310
18 27 53 43 72 24 2 31 60 64 67 72 82 91 104 112 93 77 101 190 194 189 194 225 248 278 294 301 303 307 310 300 295 293 295 301 306 308 307 307 306 308 311 313 312 312 311 309 310 309 309 309 310 310
27 40 46 56 1 10 13 25 29 51 47 54 36 29 33 18 267 130 19 40 164 198 230 275 276 293 303 309 305 302 299 293 296 301 303 304 306 307 308 310 309 308 308 308 309 309 309 309 310 310 310 310 310 311
36 29 39 23 11 11 1 2 30 24 46 40 26 17 16 323 249 330 336 329 310 294 291 298 296 299 302 303 299 303 302 299 303 309 310 311 310 308 306 307 306 306 306 306 308 308 308 306 306 307 308 309 310 310